Location: Newark
(42.2947°N, 5.1925°W)
Time: 08:03:15
(UTC+00:00)

ISS - Visible Passes

Search period start: 15 December 2019 00:00
Search period end: 25 December 2019 00:00
Orbit: 411 x 421 km, 51.6° (Epoch: 15 December)

Date Brightness Start Highest point End Pass type
(mag) Time Alt. Az. Time Alt. Az. Time Alt. Az.
19 Dec -0.3 06:54:32 10° SSE 06:56:02 13° SE 06:57:31 10° ESE visible
21 Dec -1.9 06:52:18 10° SSW 06:55:19 33° SE 06:58:22 10° ENE visible
22 Dec -1.0 06:04:25 10° S 06:06:54 20° SE 06:09:23 10° E visible
23 Dec -0.6 05:17:22 10° SSE 05:18:31 11° SE 05:19:40 10° ESE visible
23 Dec -3.8 06:51:27 10° SW 06:54:47 87° NNW 06:58:07 10° NE visible
24 Dec -3.1 06:04:26 23° SSW 06:06:13 54° SE 06:09:29 10° ENE visible
